This demonstration page uses our WeatherBlox Daily Observations layout. Learn more.

Left ArrowRight Arrow

39.01783, -85.05884

Hourly Observations for March 24, 2015

Temp ( °F °C ) Dew Point ( °F °C ) Humidity (%) Winds ( mph kmh ) Pressure ( in mb ) Visibility ( mi km ) Precip ( " mm )
12:52 am 00:52 Mostly Cloudy 33 0.6 27 -2.8 78 78 ENE 10 17 30.16 1021 10 16 0.00 0.00
1:52 am 01:52 Mostly Cloudy 33 0.6 27 -2.8 78 78 ENE 10 17 30.15 1021 9 14 0.00 0.00
2:52 am 02:52 Mostly Cloudy 33 0.6 27 -2.8 78 78 NE 7 11 30.16 1021 9 14 0.00 0.00
3:52 am 03:52 Cloudy 33 0.6 27 -2.8 78 78 NE 9 15 30.16 1021 8 13 0.00 0.00
4:52 am 04:52 Mostly Cloudy 33 0.6 27 -2.8 78 78 NNE 13 20 30.16 1021 7 11 0.00 0.00
5:52 am 05:52 Cloudy 33 0.6 27 -2.8 78 78 NE 13 20 30.17 1022 7 11 0.00 0.00
6:52 am 06:52 Cloudy 33 0.6 27 -2.8 78 78 NE 12 19 30.18 1022 7 11 0.00 0.00
7:52 am 07:52 Mostly Cloudy with Mist and Fog 32 0 26 -3.3 79 79 NE 13 20 30.19 1022 5 8 0.00 0.00
8:52 am 08:52 Mostly Cloudy with Haze 33 0.6 26 -3.3 75 75 NE 13 20 30.21 1023 6 10 0.00 0.00
9:52 am 09:52 Cloudy with Haze 34 1.1 27 -2.8 76 76 NNE 8 13 30.24 1024 6 10 0.00 0.00
10:52 am 10:52 Cloudy 36 2.2 27 -2.8 70 70 NNE 10 17 30.26 1025 7 11 0.00 0.00
11:52 am 11:52 Cloudy 39 3.9 27 -2.8 62 62 ENE 9 15 30.26 1025 8 13 0.00 0.00
12:52 pm 12:52 Mostly Cloudy 42 5.6 29 -1.7 60 60 E 9 15 30.23 1024 9 14 0.00 0.00
1:52 pm 13:52 Cloudy 43 6.1 29 -1.7 58 58 NNE 13 20 30.22 1023 9 14 0.00 0.00
2:52 pm 14:52 Cloudy 42 5.6 32 0 68 68 ENE 8 13 30.23 1024 9 14 0.00 0.03
3:52 pm 15:52 Cloudy 43 6.1 32 0 65 65 E 9 15 30.22 1023 9 14 0.00 0.00
4:52 pm 16:52 Cloudy with Light Rain 41 5 35 1.7 79 79 ENE 12 19 30.19 1022 7 11 0.00 0.03
5:52 pm 17:52 Cloudy with Light Rain 42 5.6 36 2.2 79 79 E 12 19 30.17 1022 6 10 0.01 0.25
6:52 pm 18:52 Cloudy 43 6.1 37 2.8 80 80 E 9 15 30.16 1021 7 11 0.00 0.03
7:52 pm 19:52 Cloudy 43 6.1 37 2.8 80 80 E 12 19 30.14 1021 9 14 0.00 0.00
8:52 pm 20:52 Cloudy 44 6.7 37 2.8 76 76 E 9 15 30.12 1020 10 16 0.00 0.00
9:52 pm 21:52 Cloudy 44 6.7 37 2.8 76 76 ESE 6 9 30.12 1020 10 16 0.00 0.00
10:52 pm 22:52 Cloudy 44 6.7 36 2.2 73 73 SE 8 13 30.08 1019 10 16 0.00 0.03
11:52 pm 23:52 Cloudy 45 7.2 35 1.7 68 68 SSE 8 13 30.10 1019 10 16 0.00 0.00

Powered by AerisWeather